SAS2802 LPPT-EKCH

Flight info

Callsign SAS2802
Flight time N/A
Altitude 34000
Route IXIDA DCT TOSDI DCT ZMR DCT NUBLO DCT RONSI DCT DELOG DCT DIDIG DCT USODA DCT ERCUT DCT DITAL/N0459F360 UN873 BAZOS DCT BELDI DCT VEKIN DCT ADUTO N873 VICOT/N0457F350 DCT SUSET DCT DOSUR P729 TUDLO
Aircraft A320/M-SDE3FGHIRWY/LB1

Departure

Time 2026-04-29 02:53
Airport Lisbon Humberto Delgado Airport (LPPT)

Arrival

Time N/A
Airport Copenhagen Kastrup Airport (EKCH)
Time Latitude Longitude Altitude Speed Heading
2026-04-29 02:38 38.77027 -9.13089 334 ft 0 kts 78°
2026-04-29 02:45 38.77025 -9.13105 334 ft 3 kts 73°
2026-04-29 02:45 38.77018 -9.13128 332 ft 3 kts 61°
2026-04-29 02:45 38.77007 -9.13149 332 ft 3 kts 44°
2026-04-29 02:45 38.76991 -9.13164 334 ft 3 kts 14°
2026-04-29 02:46 38.76978 -9.13166 337 ft 1 kts 349°
2026-04-29 02:48 38.76985 -9.13168 337 ft 3 kts 348°
2026-04-29 02:48 38.77028 -9.13179 337 ft 10 kts 348°
2026-04-29 02:49 38.77125 -9.13204 338 ft 17 kts 348°
2026-04-29 02:49 38.77249 -9.13238 338 ft 19 kts 348°
2026-04-29 02:49 38.77324 -9.13329 340 ft 17 kts 261°
2026-04-29 02:49 38.77298 -9.13489 346 ft 20 kts 258°
2026-04-29 02:50 38.77270 -9.13659 351 ft 19 kts 258°
2026-04-29 02:50 38.77241 -9.13822 353 ft 17 kts 244°
2026-04-29 02:50 38.77136 -9.13896 356 ft 20 kts 203°
2026-04-29 02:50 38.76990 -9.13975 354 ft 25 kts 202°
2026-04-29 02:51 38.76820 -9.14066 344 ft 28 kts 202°
2026-04-29 02:51 38.76655 -9.14154 346 ft 20 kts 202°
2026-04-29 02:51 38.76597 -9.14247 339 ft 15 kts 288°
2026-04-29 02:51 38.76643 -9.14369 334 ft 10 kts 319°
2026-04-29 02:52 38.76718 -9.14349 337 ft 17 kts 22°
2026-04-29 02:52 38.77009 -9.14194 348 ft 76 kts 22°
2026-04-29 02:52 38.77670 -9.13841 365 ft 128 kts 22°
2026-04-29 02:52 38.78630 -9.13328 360 ft 170 kts 22°
2026-04-29 02:53 38.79803 -9.12695 634 ft 184 kts 22°
2026-04-29 02:53 38.80973 -9.12061 1280 ft 182 kts 21°
2026-04-29 02:53 38.82132 -9.11322 1708 ft 195 kts 27°
2026-04-29 02:53 38.83367 -9.10385 1926 ft 218 kts 30°
2026-04-29 02:54 38.84720 -9.09330 2198 ft 240 kts 30°
2026-04-29 02:54 38.86213 -9.08162 2588 ft 260 kts 31°
2026-04-29 02:54 38.87780 -9.06933 3309 ft 267 kts 31°
2026-04-29 02:54 38.89370 -9.05676 4074 ft 271 kts 34°
2026-04-29 02:55 38.90824 -9.04094 4845 ft 276 kts 42°
2026-04-29 02:55 38.92253 -9.02424 5582 ft 280 kts 42°
2026-04-29 02:55 38.93708 -9.00723 6325 ft 285 kts 41°
2026-04-29 02:55 38.95185 -8.98998 7030 ft 289 kts 41°
2026-04-29 02:56 38.96678 -8.97256 7747 ft 292 kts 41°
2026-04-29 02:56 38.98189 -8.95492 8474 ft 295 kts 42°
2026-04-29 02:56 38.99716 -8.93709 9195 ft 298 kts 42°
2026-04-29 02:56 39.01257 -8.91910 9888 ft 301 kts 41°
2026-04-29 02:57 39.02854 -8.90046 10147 ft 321 kts 41°
2026-04-29 02:57 39.04561 -8.88054 10273 ft 342 kts 41°
2026-04-29 02:57 39.06378 -8.85934 10404 ft 362 kts 41°
2026-04-29 02:57 39.08293 -8.83692 10529 ft 381 kts 42°
2026-04-29 02:58 39.10297 -8.81342 10653 ft 398 kts 42°
2026-04-29 02:58 39.12368 -8.78905 10979 ft 408 kts 42°
2026-04-29 02:58 39.14473 -8.76425 11494 ft 412 kts 42°
2026-04-29 02:58 39.16590 -8.73909 12029 ft 416 kts 44°
2026-04-29 02:59 39.18546 -8.71143 12569 ft 419 kts 49°
2026-04-29 02:59 39.20479 -8.68313 13126 ft 423 kts 49°
2026-04-29 02:59 39.22427 -8.65454 13671 ft 426 kts 49°
2026-04-29 02:59 39.24390 -8.62570 14146 ft 429 kts 49°
2026-04-29 03:00 39.26372 -8.59660 14588 ft 433 kts 49°
2026-04-29 03:00 39.28369 -8.56728 15039 ft 436 kts 49°
2026-04-29 03:00 39.30354 -8.53814 15469 ft 440 kts 49°
2026-04-29 03:00 39.32378 -8.50838 15887 ft 443 kts 50°
2026-04-29 03:01 39.34419 -8.47830 16301 ft 447 kts 50°
2026-04-29 03:01 39.36475 -8.44802 16708 ft 450 kts 50°
2026-04-29 03:01 39.38544 -8.41750 17111 ft 453 kts 50°
2026-04-29 03:01 39.40628 -8.38676 17503 ft 457 kts 50°
2026-04-29 03:02 39.42729 -8.35569 17884 ft 460 kts 50°
2026-04-29 03:02 39.44839 -8.32441 18242 ft 463 kts 50°
2026-04-29 03:02 39.46963 -8.29288 18582 ft 466 kts 50°
2026-04-29 03:02 39.49093 -8.26122 18943 ft 468 kts 50°
2026-04-29 03:03 39.51241 -8.22931 19293 ft 470 kts 50°
2026-04-29 03:03 39.53397 -8.19734 19656 ft 472 kts 50°
2026-04-29 03:03 39.55557 -8.16532 20019 ft 473 kts 50°
2026-04-29 03:03 39.57723 -8.13316 20340 ft 475 kts 50°
2026-04-29 03:04 39.59905 -8.10069 20653 ft 477 kts 51°
2026-04-29 03:04 39.62078 -8.06828 21025 ft 476 kts 51°
2026-04-29 03:04 39.64246 -8.03586 21443 ft 475 kts 51°
2026-04-29 03:04 39.66430 -8.00375 21864 ft 474 kts 49°
2026-04-29 03:05 39.68714 -7.97281 22278 ft 474 kts 47°
2026-04-29 03:05 39.71079 -7.94301 22705 ft 474 kts 45°
2026-04-29 03:05 39.73487 -7.91383 23140 ft 473 kts 45°
2026-04-29 03:05 39.75903 -7.88481 23558 ft 472 kts 45°
2026-04-29 03:06 39.78296 -7.85578 23937 ft 471 kts 46°
2026-04-29 03:06 39.80670 -7.82636 24340 ft 469 kts 46°
2026-04-29 03:06 39.83008 -7.79691 24753 ft 468 kts 47°
2026-04-29 03:06 39.85330 -7.76735 25181 ft 466 kts 47°
2026-04-29 03:07 39.87637 -7.73781 25617 ft 464 kts 47°
2026-04-29 03:07 39.89938 -7.70836 26056 ft 463 kts 47°
2026-04-29 03:07 39.92231 -7.67906 26510 ft 461 kts 47°
2026-04-29 03:07 39.94521 -7.64987 26964 ft 459 kts 47°
2026-04-29 03:08 39.96800 -7.62087 27427 ft 457 kts 47°
2026-04-29 03:08 39.99046 -7.59233 27858 ft 456 kts 47°
2026-04-29 03:08 40.01313 -7.56350 28280 ft 455 kts 47°
2026-04-29 03:08 40.03603 -7.53433 28728 ft 454 kts 47°
2026-04-29 03:09 40.05828 -7.50589 29185 ft 452 kts 47°
2026-04-29 03:09 40.08067 -7.47721 29656 ft 451 kts 47°
2026-04-29 03:09 40.10302 -7.44859 30091 ft 449 kts 47°
2026-04-29 03:09 40.12532 -7.42002 30471 ft 448 kts 47°
2026-04-29 03:10 40.14756 -7.39149 30819 ft 448 kts 47°
2026-04-29 03:10 40.16975 -7.36300 31165 ft 447 kts 47°
2026-04-29 03:10 40.19196 -7.33447 31506 ft 447 kts 47°
2026-04-29 03:10 40.21413 -7.30594 31850 ft 447 kts 48°
2026-04-29 03:11 40.23624 -7.27741 32199 ft 447 kts 48°
2026-04-29 03:11 40.25840 -7.24881 32528 ft 447 kts 48°
2026-04-29 03:11 40.28055 -7.22020 32806 ft 448 kts 48°
2026-04-29 03:11 40.30273 -7.19155 33088 ft 449 kts 48°
2026-04-29 03:12 40.32499 -7.16280 33395 ft 449 kts 48°
2026-04-29 03:12 40.34717 -7.13412 33707 ft 449 kts 48°
2026-04-29 03:12 40.36946 -7.10527 33839 ft 452 kts 48°
2026-04-29 03:13 40.41478 -7.04639 33865 ft 465 kts 48°
2026-04-29 03:13 40.46138 -6.98573 33854 ft 477 kts 48°
2026-04-29 03:14 40.50835 -6.92465 33854 ft 479 kts 48°
2026-04-29 03:14 40.55570 -6.86288 33852 ft 479 kts 48°
2026-04-29 03:15 40.60307 -6.80098 33852 ft 480 kts 48°
2026-04-29 03:15 40.65041 -6.73892 33850 ft 481 kts 48°
2026-04-29 03:16 40.69773 -6.67668 33862 ft 481 kts 48°
2026-04-29 03:16 40.74504 -6.61442 33849 ft 481 kts 49°
2026-04-29 03:17 40.79236 -6.55200 33847 ft 481 kts 49°
2026-04-29 03:17 40.83976 -6.48935 33846 ft 482 kts 49°
2026-04-29 03:18 40.88720 -6.42656 33824 ft 483 kts 49°
2026-04-29 03:18 40.93444 -6.36392 33821 ft 485 kts 49°
2026-04-29 03:19 40.98208 -6.30050 33830 ft 487 kts 49°
2026-04-29 03:19 41.03096 -6.23825 33833 ft 489 kts 45°
2026-04-29 03:20 41.08203 -6.17844 33844 ft 490 kts 44°
2026-04-29 03:20 41.13338 -6.11884 33854 ft 490 kts 45°
2026-04-29 03:21 41.18416 -6.05840 33839 ft 491 kts 45°
2026-04-29 03:21 41.23481 -5.99733 33833 ft 492 kts 45°
2026-04-29 03:22 41.28555 -5.93601 33836 ft 494 kts 45°
2026-04-29 03:22 41.32784 -5.88492 33839 ft 494 kts 45°
2026-04-29 03:23 41.37893 -5.82328 33844 ft 495 kts 45°
2026-04-29 03:23 41.43008 -5.76146 33859 ft 496 kts 45°
2026-04-29 03:24 41.48084 -5.69981 33846 ft 497 kts 45°
2026-04-29 03:24 41.53471 -5.64173 33847 ft 501 kts 33°
2026-04-29 03:25 41.59763 -5.60178 33857 ft 502 kts 23°
2026-04-29 03:25 41.66218 -5.56564 33865 ft 503 kts 23°
2026-04-29 03:26 41.72655 -5.52918 33872 ft 503 kts 23°
2026-04-29 03:26 41.79104 -5.49253 33871 ft 503 kts 23°
2026-04-29 03:27 41.85546 -5.45598 33866 ft 503 kts 23°
2026-04-29 03:27 41.91992 -5.41932 33873 ft 503 kts 23°
2026-04-29 03:28 41.98435 -5.38256 33876 ft 503 kts 23°
2026-04-29 03:28 42.04877 -5.34570 33874 ft 503 kts 23°
2026-04-29 03:29 42.11286 -5.30904 33875 ft 504 kts 22°
2026-04-29 03:29 42.17757 -5.27203 33859 ft 506 kts 22°
2026-04-29 03:30 42.24245 -5.23477 33859 ft 507 kts 22°
2026-04-29 03:30 42.30738 -5.19730 33879 ft 508 kts 22°
2026-04-29 03:31 42.40510 -5.14066 33859 ft 510 kts 22°
2026-04-29 03:31 42.47034 -5.10293 33864 ft 510 kts 22°
2026-04-29 03:32 42.53574 -5.06502 33887 ft 511 kts 22°
2026-04-29 03:32 42.60124 -5.02692 33882 ft 512 kts 22°
2026-04-29 03:33 42.66632 -4.98881 33881 ft 513 kts 22°
2026-04-29 03:33 42.73196 -4.95039 33871 ft 513 kts 22°
2026-04-29 03:34 42.79757 -4.91202 33886 ft 513 kts 22°
2026-04-29 03:34 42.86320 -4.87344 33899 ft 514 kts 22°
2026-04-29 03:35 42.92887 -4.83480 33918 ft 514 kts 22°
2026-04-29 03:35 42.99453 -4.79597 33905 ft 514 kts 22°
2026-04-29 03:36 43.06010 -4.75705 33913 ft 514 kts 22°
2026-04-29 03:36 43.12567 -4.71817 33916 ft 514 kts 22°
2026-04-29 03:37 43.19089 -4.67936 33925 ft 515 kts 21°
2026-04-29 03:37 43.25658 -4.64010 33916 ft 515 kts 21°
2026-04-29 03:38 43.32249 -4.60082 33927 ft 516 kts 21°
2026-04-29 03:38 43.38829 -4.56150 33922 ft 516 kts 21°
2026-04-29 03:39 43.45409 -4.52205 33930 ft 516 kts 21°
2026-04-29 03:39 43.51993 -4.48243 33930 ft 516 kts 21°
2026-04-29 03:40 43.58574 -4.44262 33941 ft 517 kts 21°
2026-04-29 03:40 43.65161 -4.40279 33936 ft 517 kts 21°
2026-04-29 03:41 43.71712 -4.36306 33933 ft 517 kts 21°
2026-04-29 03:41 43.78302 -4.32297 33947 ft 518 kts 21°
2026-04-29 03:42 43.84896 -4.28281 33939 ft 518 kts 21°
2026-04-29 03:42 43.91490 -4.24258 33934 ft 518 kts 21°
2026-04-29 03:43 43.98087 -4.20228 33947 ft 518 kts 20°
2026-04-29 03:43 44.04680 -4.16183 33937 ft 518 kts 20°
2026-04-29 03:44 44.11273 -4.12125 33933 ft 518 kts 20°
2026-04-29 03:44 44.17862 -4.08063 33959 ft 518 kts 20°
2026-04-29 03:45 44.24413 -4.04015 33945 ft 518 kts 20°
2026-04-29 03:45 44.30998 -3.99923 33937 ft 519 kts 22°
2026-04-29 03:46 44.37170 -3.94605 33942 ft 523 kts 33°
2026-04-29 03:46 44.43130 -3.88778 33924 ft 523 kts 32°
2026-04-29 03:47 44.49105 -3.82951 33937 ft 523 kts 32°
2026-04-29 03:47 44.55080 -3.77119 33928 ft 523 kts 32°
2026-04-29 03:48 44.61043 -3.71254 33940 ft 524 kts 32°
2026-04-29 03:48 44.67007 -3.65375 33936 ft 524 kts 32°
2026-04-29 03:49 44.72983 -3.59486 33934 ft 524 kts 32°
2026-04-29 03:49 44.78960 -3.53580 33933 ft 524 kts 32°
2026-04-29 03:50 44.84918 -3.47661 33926 ft 524 kts 33°
2026-04-29 03:50 44.90834 -3.41764 33906 ft 524 kts 32°
2026-04-29 03:51 44.96792 -3.35835 33939 ft 524 kts 32°
2026-04-29 03:51 45.02750 -3.29902 33933 ft 524 kts 32°
2026-04-29 03:52 45.08697 -3.23957 33933 ft 524 kts 32°
2026-04-29 03:52 45.14635 -3.17969 33931 ft 524 kts 32°
2026-04-29 03:53 45.20578 -3.11989 33942 ft 524 kts 32°
2026-04-29 03:53 45.26510 -3.05999 33915 ft 523 kts 32°
2026-04-29 03:54 45.32433 -2.99994 33930 ft 523 kts 32°
2026-04-29 03:54 45.38354 -2.93988 33937 ft 522 kts 32°
2026-04-29 03:55 45.44269 -2.87963 33935 ft 522 kts 33°
2026-04-29 03:55 45.50168 -2.81929 33930 ft 522 kts 33°
2026-04-29 03:56 45.56084 -2.75881 33952 ft 523 kts 32°
2026-04-29 03:56 45.61990 -2.69830 33917 ft 522 kts 33°
2026-04-29 03:57 45.67886 -2.63773 33928 ft 522 kts 33°
2026-04-29 03:57 45.73740 -2.57726 33929 ft 522 kts 33°
2026-04-29 03:58 45.79617 -2.51633 33945 ft 522 kts 33°
2026-04-29 03:58 45.85502 -2.45525 33933 ft 522 kts 33°
2026-04-29 03:59 45.91387 -2.39415 33931 ft 521 kts 33°
2026-04-29 03:59 45.97262 -2.33309 33920 ft 521 kts 33°
2026-04-29 04:00 46.03134 -2.27175 33926 ft 521 kts 33°
2026-04-29 04:00 46.09041 -2.21140 33931 ft 520 kts 31°
2026-04-29 04:01 46.15105 -2.15457 33959 ft 519 kts 28°
2026-04-29 04:01 46.21212 -2.09870 33951 ft 520 kts 29°
2026-04-29 04:02 46.27230 -2.04211 34064 ft 519 kts 30°
2026-04-29 04:02 46.30237 -2.01331 34298 ft 518 kts 30°
2026-04-29 04:02 46.33234 -1.98449 34514 ft 517 kts 30°
2026-04-29 04:03 46.36224 -1.95574 34762 ft 516 kts 31°
2026-04-29 04:03 46.39218 -1.92698 34897 ft 515 kts 31°
2026-04-29 04:03 46.45175 -1.86985 34938 ft 513 kts 31°
2026-04-29 04:04 46.51130 -1.81271 34942 ft 513 kts 31°
2026-04-29 04:04 46.57080 -1.75560 34961 ft 513 kts 31°
2026-04-29 04:05 46.63013 -1.69832 34946 ft 512 kts 31°
2026-04-29 04:05 46.68945 -1.64079 34948 ft 512 kts 31°
2026-04-29 04:06 46.74870 -1.58311 34935 ft 512 kts 31°
2026-04-29 04:06 46.80800 -1.52532 34947 ft 513 kts 31°
2026-04-29 04:07 46.86746 -1.46748 34958 ft 513 kts 31°
2026-04-29 04:07 46.92645 -1.40984 34965 ft 513 kts 31°
2026-04-29 04:08 46.98304 -1.34619 34982 ft 516 kts 44°
2026-04-29 04:08 47.03119 -1.26822 34988 ft 516 kts 47°
2026-04-29 04:09 47.07914 -1.18989 34973 ft 516 kts 47°
2026-04-29 04:09 47.12707 -1.11161 34983 ft 516 kts 47°
2026-04-29 04:10 47.17491 -1.03307 34996 ft 516 kts 47°
2026-04-29 04:10 47.21450 -0.96773 35011 ft 515 kts 48°
2026-04-29 04:11 47.26218 -0.88895 35007 ft 515 kts 48°
2026-04-29 04:11 47.30978 -0.81011 34983 ft 515 kts 47°
2026-04-29 04:12 47.35727 -0.73118 34996 ft 514 kts 47°
2026-04-29 04:12 47.40464 -0.65214 35009 ft 514 kts 48°
2026-04-29 04:13 47.45460 -0.57677 35003 ft 512 kts 37°
2026-04-29 04:13 47.51149 -0.51397 34997 ft 511 kts 34°
2026-04-29 04:14 47.56850 -0.45119 34987 ft 511 kts 35°
2026-04-29 04:14 47.62546 -0.38809 34999 ft 510 kts 36°
2026-04-29 04:15 47.68223 -0.32488 34997 ft 510 kts 36°
2026-04-29 04:15 47.73853 -0.26209 35006 ft 509 kts 36°
2026-04-29 04:16 47.79558 -0.19847 35010 ft 509 kts 36°
2026-04-29 04:16 47.85169 -0.13560 35039 ft 508 kts 36°
2026-04-29 04:17 47.90803 -0.07221 35041 ft 507 kts 36°
2026-04-29 04:17 47.96426 -0.00886 35025 ft 506 kts 36°
2026-04-29 04:18 48.02048 0.05472 35004 ft 507 kts 36°
2026-04-29 04:18 48.07664 0.11835 35012 ft 507 kts 36°
2026-04-29 04:19 48.13279 0.18204 35017 ft 506 kts 36°
2026-04-29 04:19 48.18892 0.24589 35026 ft 506 kts 36°
2026-04-29 04:20 48.24494 0.30985 35047 ft 506 kts 37°
2026-04-29 04:20 48.30095 0.37393 35050 ft 506 kts 37°
2026-04-29 04:21 48.35689 0.43831 35028 ft 506 kts 37°
2026-04-29 04:21 48.41283 0.50286 35032 ft 507 kts 36°
2026-04-29 04:22 48.46853 0.56711 35047 ft 507 kts 37°
2026-04-29 04:22 48.52446 0.63183 35063 ft 507 kts 37°
2026-04-29 04:23 48.58035 0.69679 35073 ft 506 kts 37°
2026-04-29 04:23 48.63605 0.76178 35076 ft 506 kts 37°
2026-04-29 04:24 48.69172 0.82682 35089 ft 504 kts 38°
2026-04-29 04:24 48.74708 0.89168 35081 ft 502 kts 37°
2026-04-29 04:25 48.80261 0.95610 35088 ft 501 kts 37°
2026-04-29 04:25 48.85824 1.01997 35101 ft 501 kts 36°
2026-04-29 04:26 48.91376 1.08387 35094 ft 500 kts 37°
2026-04-29 04:26 48.96919 1.14797 35107 ft 500 kts 37°
2026-04-29 04:27 49.02441 1.21234 35102 ft 500 kts 38°
2026-04-29 04:27 49.07568 1.28401 35108 ft 500 kts 43°
2026-04-29 04:28 49.12615 1.35694 35093 ft 498 kts 43°
2026-04-29 04:28 49.17646 1.42970 35104 ft 498 kts 43°
2026-04-29 04:29 49.22642 1.50197 35105 ft 497 kts 43°
2026-04-29 04:29 49.27653 1.57483 35112 ft 497 kts 43°
2026-04-29 04:30 49.32658 1.64792 35124 ft 496 kts 44°
2026-04-29 04:31 49.40128 1.75717 35131 ft 494 kts 44°
2026-04-29 04:31 49.45103 1.83015 35126 ft 494 kts 43°
2026-04-29 04:32 49.50058 1.90324 35127 ft 494 kts 43°
2026-04-29 04:32 49.55000 1.97640 35145 ft 491 kts 44°
2026-04-29 04:33 49.59907 2.04926 35146 ft 489 kts 44°
2026-04-29 04:33 49.64795 2.12193 35149 ft 487 kts 44°
2026-04-29 04:34 49.69670 2.19454 35155 ft 486 kts 44°
2026-04-29 04:34 49.74530 2.26717 35146 ft 485 kts 44°
2026-04-29 04:35 49.79365 2.33961 35171 ft 483 kts 44°
2026-04-29 04:35 49.84185 2.41216 35172 ft 482 kts 44°
2026-04-29 04:36 49.88985 2.48476 35176 ft 482 kts 44°
2026-04-29 04:36 49.93773 2.55742 35188 ft 481 kts 44°
2026-04-29 04:37 49.98529 2.62957 35194 ft 480 kts 44°
2026-04-29 04:37 50.03297 2.70200 35196 ft 479 kts 44°
2026-04-29 04:38 50.08051 2.77459 35190 ft 478 kts 44°
2026-04-29 04:38 50.12777 2.84711 35203 ft 476 kts 44°
2026-04-29 04:39 50.17490 2.91959 35193 ft 472 kts 45°
2026-04-29 04:39 50.22100 2.99061 35178 ft 462 kts 45°
2026-04-29 04:40 50.26678 3.06112 35186 ft 461 kts 45°
2026-04-29 04:40 50.31211 3.13137 35200 ft 461 kts 45°
2026-04-29 04:41 50.35755 3.20218 35202 ft 461 kts 45°
2026-04-29 04:41 50.40474 3.27015 35227 ft 460 kts 36°
2026-04-29 04:42 50.46062 3.31898 35243 ft 458 kts 27°
2026-04-29 04:42 50.51725 3.36325 35243 ft 457 kts 27°
2026-04-29 04:43 50.57505 3.40495 35242 ft 456 kts 24°
2026-04-29 04:43 50.63346 3.44390 35236 ft 454 kts 25°
2026-04-29 04:44 50.69114 3.48258 35249 ft 452 kts 25°
2026-04-29 04:44 50.74876 3.52236 35253 ft 450 kts 26°
2026-04-29 04:45 50.80600 3.56243 35250 ft 449 kts 26°
2026-04-29 04:45 50.86279 3.60214 35260 ft 448 kts 25°
2026-04-29 04:46 50.91994 3.64199 35265 ft 447 kts 25°
2026-04-29 04:46 50.97672 3.68233 35265 ft 446 kts 26°
2026-04-29 04:47 51.03309 3.72328 35274 ft 445 kts 26°
2026-04-29 04:47 51.08913 3.76397 35272 ft 445 kts 26°
2026-04-29 04:48 51.14566 3.80478 35279 ft 445 kts 26°
2026-04-29 04:48 51.20204 3.84545 35279 ft 445 kts 25°
2026-04-29 04:49 51.25804 3.88614 35279 ft 444 kts 26°
2026-04-29 04:49 51.31434 3.92730 35285 ft 444 kts 26°
2026-04-29 04:50 51.37056 3.96848 35312 ft 444 kts 26°
2026-04-29 04:50 51.42634 4.00954 35313 ft 443 kts 26°
2026-04-29 04:51 51.48072 4.05570 35308 ft 441 kts 37°
2026-04-29 04:51 51.52555 4.12227 35320 ft 438 kts 46°
2026-04-29 04:52 51.56798 4.19194 35328 ft 435 kts 46°
2026-04-29 04:52 51.61028 4.26141 35328 ft 433 kts 46°
2026-04-29 04:53 51.65201 4.33028 35332 ft 431 kts 46°
2026-04-29 04:53 51.69389 4.39967 35329 ft 430 kts 47°
2026-04-29 04:54 51.73557 4.46893 35338 ft 430 kts 47°
2026-04-29 04:54 51.77717 4.53819 35341 ft 429 kts 47°
2026-04-29 04:55 51.81845 4.60703 35353 ft 429 kts 47°
2026-04-29 04:55 51.85997 4.67655 35349 ft 428 kts 47°
2026-04-29 04:56 51.90133 4.74596 35339 ft 428 kts 47°
2026-04-29 04:56 51.94229 4.81507 35354 ft 428 kts 47°
2026-04-29 04:57 51.98347 4.88460 35362 ft 426 kts 47°
2026-04-29 04:57 52.02455 4.95404 35367 ft 425 kts 47°
2026-04-29 04:58 52.06513 5.02294 35369 ft 424 kts 47°
2026-04-29 04:58 52.10587 5.09243 35378 ft 423 kts 47°
2026-04-29 04:59 52.14087 5.14823 35372 ft 424 kts 41°
2026-04-29 04:59 52.18616 5.20991 35372 ft 423 kts 41°
2026-04-29 05:00 52.23118 5.27146 35390 ft 421 kts 41°
2026-04-29 05:00 52.27573 5.33266 35401 ft 420 kts 41°
2026-04-29 05:01 52.32040 5.39414 35409 ft 419 kts 41°
2026-04-29 05:01 52.36473 5.45533 35409 ft 418 kts 41°
2026-04-29 05:02 52.40918 5.51681 35414 ft 417 kts 41°
2026-04-29 05:02 52.45335 5.57806 35415 ft 415 kts 41°
2026-04-29 05:03 52.49744 5.63940 35404 ft 413 kts 41°
2026-04-29 05:03 52.54105 5.70032 35410 ft 412 kts 41°
2026-04-29 05:04 52.58482 5.76149 35406 ft 412 kts 41°
2026-04-29 05:04 52.62835 5.82255 35406 ft 411 kts 42°
2026-04-29 05:05 52.67153 5.88341 35417 ft 410 kts 41°
2026-04-29 05:05 52.71487 5.94444 35428 ft 409 kts 42°
2026-04-29 05:06 52.75804 6.00548 35426 ft 408 kts 42°
2026-04-29 05:06 52.80111 6.06650 35437 ft 407 kts 41°
2026-04-29 05:07 52.84376 6.12709 35434 ft 405 kts 41°
2026-04-29 05:07 52.88655 6.18802 35422 ft 405 kts 41°
2026-04-29 05:08 52.92918 6.24901 35433 ft 404 kts 41°
2026-04-29 05:08 52.97140 6.30960 35433 ft 404 kts 41°
2026-04-29 05:09 53.01392 6.37063 35436 ft 403 kts 41°
2026-04-29 05:09 53.05612 6.43136 35429 ft 402 kts 41°
2026-04-29 05:10 53.09842 6.49266 35433 ft 402 kts 41°
2026-04-29 05:10 53.14049 6.55366 35426 ft 402 kts 41°
2026-04-29 05:11 53.18275 6.61493 35418 ft 402 kts 41°
2026-04-29 05:11 53.22496 6.67630 35454 ft 402 kts 41°
2026-04-29 05:12 53.26715 6.73794 35452 ft 402 kts 41°
2026-04-29 05:12 53.30895 6.79915 35439 ft 401 kts 41°
2026-04-29 05:13 53.35089 6.86078 35449 ft 401 kts 41°
2026-04-29 05:13 53.39284 6.92258 35451 ft 401 kts 41°
2026-04-29 05:14 53.43471 6.98435 35452 ft 401 kts 41°
2026-04-29 05:14 53.47629 7.04596 35442 ft 401 kts 42°
2026-04-29 05:15 53.51820 7.10818 35442 ft 401 kts 42°
2026-04-29 05:15 53.56005 7.17045 35446 ft 401 kts 41°
2026-04-29 05:16 53.60168 7.23269 35447 ft 402 kts 42°
2026-04-29 05:16 53.64354 7.29538 35473 ft 401 kts 41°
2026-04-29 05:17 53.68515 7.35793 35448 ft 399 kts 41°
2026-04-29 05:17 53.72664 7.42041 35448 ft 399 kts 41°
2026-04-29 05:18 53.76790 7.48254 35435 ft 399 kts 41°
2026-04-29 05:18 53.80937 7.54528 35442 ft 400 kts 41°
2026-04-29 05:19 53.85079 7.60822 35448 ft 400 kts 41°
2026-04-29 05:19 53.89222 7.67131 35451 ft 400 kts 41°
2026-04-29 05:20 53.93339 7.73412 35460 ft 400 kts 41°
2026-04-29 05:20 53.97480 7.79745 35460 ft 400 kts 41°
2026-04-29 05:21 54.01620 7.86088 35466 ft 400 kts 41°
2026-04-29 05:21 54.05753 7.92450 35466 ft 400 kts 41°
2026-04-29 05:22 54.09869 7.98804 35480 ft 399 kts 41°
2026-04-29 05:22 54.13963 8.05138 35475 ft 399 kts 41°
2026-04-29 05:23 54.18065 8.11515 35474 ft 399 kts 41°
2026-04-29 05:23 54.22172 8.17903 35470 ft 399 kts 41°
2026-04-29 05:24 54.26257 8.24285 35470 ft 399 kts 41°
2026-04-29 05:24 54.30354 8.30707 35472 ft 398 kts 41°
2026-04-29 05:25 54.34427 8.37101 35473 ft 398 kts 41°
2026-04-29 05:25 54.38521 8.43530 35476 ft 398 kts 41°
2026-04-29 05:26 54.42592 8.49946 35476 ft 398 kts 41°
2026-04-29 05:26 54.46668 8.56412 35477 ft 398 kts 41°
2026-04-29 05:27 54.50718 8.62834 35472 ft 396 kts 41°
2026-04-29 05:27 54.56784 8.72496 35471 ft 395 kts 41°
2026-04-29 05:28 54.60795 8.78913 35471 ft 395 kts 41°
2026-04-29 05:28 54.64837 8.85389 35474 ft 395 kts 41°
2026-04-29 05:29 54.68873 8.91878 35473 ft 395 kts 41°
2026-04-29 05:29 54.72869 8.98322 35477 ft 395 kts 41°
2026-04-29 05:30 54.76891 9.04821 35475 ft 395 kts 41°
2026-04-29 05:30 54.80903 9.11315 35475 ft 394 kts 41°
2026-04-29 05:31 54.84908 9.17838 35474 ft 395 kts 41°
2026-04-29 05:31 54.88627 9.24818 35475 ft 396 kts 46°
2026-04-29 05:32 54.92276 9.32024 35508 ft 396 kts 46°
2026-04-29 05:32 54.95918 9.39224 35508 ft 395 kts 46°
2026-04-29 05:33 54.99528 9.46366 35504 ft 395 kts 46°